Weather Roundup
Issued by NWS Corpus Christi, TX

Home | Current Version | Previous Version | Text Only | Print | Product List | Glossary On
Versions: 1 2 3 4 5 6 7 8 9 10 11 12 13 14 15 16 17 18 19 20 21 22 23 24 25 26 27 28 29 30 31 32 33 34 35 36 37 38 39 40 41 42 43 44 45 46 47 48 49 50
000
ASUS44 KCRP 230210
HRRCRP

SOUTH TEXAS REGIONAL WEATHER ROUNDUP
NATIONAL WEATHER SERVICE CORPUS CHRISTI TX
800 PM CST SAT NOV 22 2014


TXZ229>244-230300-
...CORPUS CHRISTI AREA OBSERVATIONS...

CITY           SKY/WX    TMP DP  RH WIND       PRES   REMARKS
CORPUS CHRISTI TSTM      65  60  84 N13       29.84R
NAS CORPUS CHR TSTM      67  64  90 NW16      29.81R
ROCKPORT       TSTM      67  66  97 W8        29.79F FOG
KINGSVILLE NAS TSTM      65  62  90 NE8G18    29.80S
ALICE          CLOUDY    64  59  83 E7        29.77F
FALFURRIAS     CLOUDY    64  61  90 N7        29.80F
$$

...VICTORIA AREA OBSERVATIONS...

CITY           SKY/WX    TMP DP  RH WIND       PRES   REMARKS
VICTORIA       CLOUDY    71  68  90 S10       29.80R
BEEVILLE       TSTM      70  64  81 S17G30    29.68F
PLEASANTON     HVY RAIN  70  62  76 W32G49    29.79R
SAN ANTONIO    TSTM      64  53  67 S15G35    29.80R VSB 1/4
$$

...LAREDO AREA OBSERVATIONS...

CITY           SKY/WX    TMP DP  RH WIND       PRES   REMARKS
LAREDO         PTCLDY    64  57  78 S8        29.80R
COTULLA        LGT RAIN  66  53  63 N18G33    29.77R
DEL RIO        PTCLDY    59  53  80 CALM      29.78R
MCALLEN        CLOUDY    74  69  85 S5        29.79R
HEBBRONVILLE   CLOUDY    62  60  93 S7        29.81R
$$

...OTHER TEXAS OBSERVATIONS...

CITY           SKY/WX    TMP DP  RH WIND       PRES   REMARKS
BROWNSVILLE    CLOUDY    75  71  87 S15       29.73S
HOUSTON        CLOUDY    67  65  93 SE15      29.82R FOG
COL. STATION   LGT RAIN  64  63  96 SE3       29.79S FOG
AUSTIN         TSTM      66  66 100 W10G20    29.76R
WACO           CLOUDY    60  59  96 NE7       29.80F
FORT WORTH     LGT RAIN  56  56 100 E3        29.81F
WICHITA FALLS  CLOUDY    55  54  96 SW6       29.77R
LUBBOCK        PTCLDY    54  51  90 S10       29.75F FOG
EL PASO        PTCLDY    61  19  19 W9        29.91R
$$

...MARINE OBSERVATIONS...

STATION/POSITION TIME  SKY/WX   TEMP    WIND        PRES    VSBY  WAVE   SWELL
                                AIR SEA DIR/SP/G                  HT/PER HT/PER
                 (UTC)          (F)     (DEG/KT/KT) (MB)    (MI)  (FT/S) (FT/S)
PORT ARANSAS     0200            69 63  240/ 14/ 17 1009.4R
BUOY 90 E PORT A 0200            72 73  130/ 19/ 25 1008.3F         8/ 7
BUOY 45 SE BAFFI 0200            75 74  160/ 19/ 23 1006.3F         7/ 8   2/14
BUOY 200 E PT IS 0200            75 75  140/ 19/ 21 1009.9F         6/ 6   2/14
BUOY 15 E GALVES 0200            65 61  180/  2/  4 1010.8R         5/ 7   5/ 7
$$


USA.gov is the U.S. government's official web portal to all federal, state and local government web resources and services.